Været på Ålesund Lufhavn, Vigra (ENAL)

 

Time for time, neste 48 timer:

Detaljert varsel fra yr.no - 48 timer

Vindprognose for Breisundet:

Vindvarsel

Upper Winds 3000 fot akkurat nå:

ENAL akkurat nå:

  • METAR: 211850Z 07006KT 9999 FEW008 BKN047 08/07 Q1014
  • TAF: TAF 211700Z 2118/2121 06008KT 9999 FEW010 BKN050